Location: 81360 Arifat, France
(43.7204°N, 2.3408°E)
Time: 08:17:37
(UTC+01:00)

A-11 Canister half - All Passes

Search period start: 14 December 2025 00:00
Search period end: 24 December 2025 00:00
Orbit: 1511 x 1688 km, 47.2° (Epoch: 13 December)

Date Brightness Start Highest point End Pass type
(mag) Time Alt. Az. Time Alt. Az. Time Alt. Az.
14 Dec - 12:55:15 10° SSE 12:58:55 13° ESE 13:02:38 10° E daylight
14 Dec - 14:53:11 10° SSW 15:01:55 49° SE 15:10:55 10° ENE daylight
14 Dec - 16:57:04 10° WSW 17:06:27 84° NNW 17:16:13 10° ENE daylight
14 Dec - 19:02:29 10° WNW 19:12:01 74° N 19:21:56 10° E visible
14 Dec - 21:07:36 10° WNW 21:17:13 72° SSW 21:27:11 10° SE visible
14 Dec - 23:13:20 10° WNW 23:21:07 28° SW 23:29:06 10° S visible
15 Dec - 12:33:20 10° SE 12:36:02 11° ESE 12:38:44 10° ESE daylight
15 Dec - 14:30:19 10° SSW 14:38:57 46° SE 14:47:49 10° ENE daylight
15 Dec - 16:34:01 10° WSW 16:43:24 86° NNW 16:53:08 10° ENE daylight
15 Dec - 18:39:25 10° W 18:48:55 73° N 18:58:48 10° E visible
15 Dec - 20:44:33 10° WNW 20:54:10 75° SSW 21:04:08 10° SE visible
15 Dec - 22:50:09 10° WNW 22:58:08 29° SW 23:06:20 10° S visible
16 Dec - 12:12:24 10° SE 12:13:08 10° ESE 12:13:52 10° ESE daylight
16 Dec - 14:07:27 10° SSW 14:15:59 44° SE 14:24:42 10° ENE daylight
16 Dec - 16:11:00 10° WSW 16:20:20 88° NNW 16:30:02 10° ENE daylight
16 Dec - 18:16:21 10° W 18:25:49 73° N 18:35:40 10° E visible
16 Dec - 20:21:30 10° WNW 20:31:07 78° SSW 20:41:05 10° SE visible
16 Dec - 22:27:00 10° WNW 22:35:10 31° SW 22:43:34 10° S visible
17 Dec - 13:44:37 10° SSW 13:53:01 41° SE 14:01:35 10° ENE daylight
17 Dec - 15:47:58 10° WSW 15:57:17 90° NNW 16:06:56 10° ENE daylight
17 Dec - 17:53:18 10° W 18:02:43 72° N 18:12:32 10° E visible
17 Dec - 19:58:28 10° WNW 20:08:04 80° SSW 20:18:01 10° ESE visible
17 Dec - 22:03:51 10° WNW 22:12:11 33° SW 22:20:44 10° SSE visible
18 Dec - 13:21:47 10° SSW 13:30:03 39° SE 13:38:28 10° ENE daylight
18 Dec - 15:24:56 10° WSW 15:34:14 88° SSE 15:43:50 10° ENE daylight
18 Dec - 17:30:14 10° W 17:39:38 72° N 17:49:24 10° E visible
18 Dec - 19:35:26 10° WNW 19:45:00 83° SSW 19:54:56 10° ESE visible
18 Dec - 21:40:44 10° WNW 21:49:12 35° SW 21:57:55 10° SSE visible
19 Dec - 12:58:59 10° SSW 13:07:05 36° SE 13:15:20 10° ENE daylight
19 Dec - 15:01:55 10° WSW 15:11:11 86° SSE 15:20:46 10° ENE daylight
19 Dec - 17:07:10 10° W 17:16:33 72° N 17:26:16 10° E daylight
19 Dec - 19:12:23 10° WNW 19:21:56 85° SSW 19:31:52 10° ESE visible
19 Dec - 21:17:37 10° WNW 21:26:13 38° SW 21:35:04 10° SSE visible
20 Dec - 12:36:11 10° SSW 12:44:08 34° SE 12:52:12 10° ENE daylight
20 Dec - 14:38:54 10° WSW 14:48:09 83° SSE 14:57:41 10° ENE daylight
20 Dec - 16:44:06 10° W 16:53:27 72° N 17:03:09 10° E daylight
20 Dec - 18:49:21 10° WNW 18:58:52 88° SSW 19:08:46 10° ESE visible
20 Dec - 20:54:32 10° WNW 21:03:13 40° SW 21:12:12 10° SSE visible
21 Dec - 12:13:25 10° SSW 12:21:12 32° SE 12:29:04 10° ENE daylight
21 Dec - 14:15:54 10° WSW 14:25:07 80° SSE 14:34:36 10° ENE daylight
21 Dec - 16:21:03 10° W 16:30:22 72° N 16:40:02 10° E daylight
21 Dec - 18:26:18 10° WNW 18:35:49 90° S 18:45:41 10° ESE visible
21 Dec - 20:31:26 10° WNW 20:40:14 42° SW 20:49:18 10° SSE visible
22 Dec - 11:50:40 10° S 11:58:15 30° SE 12:05:53 10° ENE daylight
22 Dec - 13:52:54 10° SW 14:02:06 78° SSE 14:11:31 10° ENE daylight
22 Dec - 15:57:58 10° W 16:07:17 72° N 16:16:54 10° E daylight
22 Dec - 18:03:16 10° WNW 18:12:45 88° NNE 18:22:36 10° ESE visible
22 Dec - 20:08:22 10° WNW 20:17:13 44° SW 20:26:24 10° SSE visible
22 Dec - 22:17:48 10° WSW 22:20:18 11° WSW 22:22:50 10° SW visible
23 Dec - 11:27:56 10° S 11:35:18 28° SE 11:42:44 10° ENE daylight
23 Dec - 13:29:54 10° SW 13:39:05 75° SSE 13:48:27 10° ENE daylight
23 Dec - 15:34:55 10° W 15:44:11 73° N 15:53:47 10° E daylight
23 Dec - 17:40:14 10° WNW 17:49:41 86° NNE 17:59:29 10° ESE visible
23 Dec - 19:45:17 10° WNW 19:54:13 47° SW 20:03:28 10° SSE visible
23 Dec - 21:53:49 10° W 21:57:23 12° WSW 22:00:59 10° SW visible
